Regional Weather Roundup
Issued by NWS Spokane, WA

Home | Current Version | Previous Version | Text Only | Print | Product List | Glossary On
Versions: 1 2 3 4 5 6 7 8 9 10 11 12 13 14 15 16 17 18 19 20 21 22 23 24 25 26 27 28 29 30 31 32 33 34 35 36 37 38 39 40 41 42 43 44 45 46 47 48 49 50
579
NZUS01 KOTX 280210
RWROTX
EASTERN WASHINGTON/NORTHERN IDAHO ROUNDUP
NATIONAL WEATHER SERVICE, SPOKANE WA
700 PM PDT WED JUL 27 2016

Note: "fair" indicated few or no clouds below 12,000 feet with no
significant weather and/or obstructions to visibility.

...NORTHEAST WASHINGTON AND NORTHERN IDAHO PANHANDLE...

CITY           SKY/WX    TMP DP  RH WIND       PRES   REMARKS
SPOKANE INTL   MOSUNNY   91  42  18 NW8       30.01S
SPOKANE DOWNTO MOSUNNY   89  48  24 CALM      29.99S
COEUR D ALENE  SUNNY     88  54  31 W6        29.97S
DEER PARK      MOSUNNY   89  48  24 W6        30.01S
SANDPOINT      SUNNY     86  52  30 CALM      29.99S
BONNERS FERRY    N/A     81  54  39 N21       30.02R

...SOUTHEAST WASHINGTON AND SOUTHERN IDAHO PANHANDLE...

CITY           SKY/WX    TMP DP  RH WIND       PRES   REMARKS
WALLA WALLA    SUNNY     94  50  22 CALM      29.94S HX  91
PULLMAN/MOSCOW SUNNY     87  47  24 W3        30.04S
LEWISTON       SUNNY     95  50  21 N10       29.94R HX  92
LOWELL           N/A     78  58  49 N6        29.93R

...COLUMBIA BASIN...

CITY           SKY/WX    TMP DP  RH WIND       PRES   REMARKS
EPHRATA        SUNNY     93  49  22 SW7       29.95S HX  90
MOSES LAKE     SUNNY     93  48  21 SW7       29.95F
TRI CITIES     SUNNY     97  53  22 N5        29.90F HX  94
HERMISTON      SUNNY     96  55  25 NE8       29.90F HX  94
PENDLETON      SUNNY     92  47  21 N10       29.96S

...EAST SLOPES CASCADES...

CITY           SKY/WX    TMP DP  RH WIND       PRES   REMARKS
THE DALLES     SUNNY     89  61  38 NW16      29.91R
YAKIMA         SUNNY     96  48  19 CALM      29.94F HX  92
ELLENSBURG     SUNNY     86  52  30 NW16      30.00S
STAMPEDE PASS  SUNNY     67  53  61 VRB6      30.20S
WENATCHEE      SUNNY     93  55  27 E5        29.93F HX  91
OMAK           SUNNY     93  48  21 N5        29.95F

...SOUTHERN BRITISH COLUMBIA...

CITY           SKY/WX    TMP DP  RH WIND       PRES   REMARKS
PENTICTON      MOSUNNY   88  61  40 N5        29.96F
CASTLEGAR      PTSUNNY   79  63  57 N8        30.01S
CRANBROOK      PTSUNNY   75  48  38 SW5       30.12S

...WESTERN MONTANA...

CITY           SKY/WX    TMP DP  RH WIND       PRES   REMARKS
MISSOULA       PTSUNNY   85  44  23 N13       30.04S

...NEIGHBORING CITIES...

CITY           SKY/WX    TMP DP  RH WIND       PRES   REMARKS
SEATTLE        MOSUNNY   81  59  47 NW10      30.09S
CALGARY        PTSUNNY   73  55  53 S2        30.18R



USA.gov is the U.S. government's official web portal to all federal, state and local government web resources and services.